Simultaneous Nadir Overpasses (SNOs) Predictions

Prediction of SNOs between AQUA and LANDSAT-8 Satellite Orbit:

Table of predicted SNOs for the next 14.0 days since TLE Epoch: 6/6/2025
Index Date (AQUA) Time (AQUA) Lat,Lon (AQUA) SZA (AQUA ) Date (LANDSAT-8) Time (LANDSAT-8) Lat,Lon (LANDSAT-8) SZA (LANDSAT-8 ) Distance(km) Time Diff (sec)
1 06/19/2025 07:10:03 -74.89, -99.47 128.46 06/19/2025 07:08:57 -74.88,-102.10 128.57 76.03 66
2 06/19/2025 07:59:27 75.18, 67.43 51.79 06/19/2025 07:58:17 75.15, 66.25 51.72 33.88 70
3 06/19/2025 08:48:49 -75.39,-125.49 128.02 06/19/2025 08:47:40 -75.39,-125.46 128.03 1.01 69
4 06/19/2025 09:38:07 75.38, 42.23 51.97 06/19/2025 09:37:05 75.41, 42.23 51.99 3.47 62
5 06/19/2025 10:27:25 -75.39,-150.14 128.02 06/19/2025 10:26:33 -75.40,-150.16 128.02 0.97 52
6 06/19/2025 11:16:44 75.42, 17.44 52.01 06/19/2025 11:15:58 75.41, 17.53 52.00 2.78 46
7 06/19/2025 12:06:01 -75.39,-174.78 128.02 06/19/2025 12:05:26 -75.40,-174.86 128.02 2.76 35
8 06/19/2025 12:55:20 75.42, -7.21 52.01 06/19/2025 12:54:51 75.42, -7.18 52.00 0.96 29
9 06/19/2025 13:44:38 -75.44, 160.43 127.98 06/19/2025 13:44:19 -75.41, 160.43 128.01 3.17 19
10 06/19/2025 14:33:56 75.42, -31.85 52.01 06/19/2025 14:33:44 75.42, -31.88 52.01 0.86 12
11 06/19/2025 15:23:14 -75.44, 135.79 127.98 06/19/2025 15:23:12 -75.41, 135.73 128.01 2.88 2
12 06/19/2025 16:12:32 75.42, -56.50 52.01 06/19/2025 16:12:37 75.43, -56.58 52.02 2.67 5
13 06/19/2025 17:01:50 -75.44, 111.14 127.98 06/19/2025 17:02:05 -75.42, 111.02 128.00 3.63 15
14 06/19/2025 17:51:09 75.47, -81.29 52.05 06/19/2025 17:51:30 75.44, -81.29 52.02 3.69 21
15 06/19/2025 18:40:27 -75.48, 86.35 127.94 06/19/2025 18:40:57 -75.48, 86.46 127.94 3.11 30
16 06/19/2025 19:29:45 75.47,-105.93 52.05 06/19/2025 19:30:23 75.44,-105.99 52.03 3.39 38
17 06/19/2025 20:19:03 -75.48, 61.71 127.94 06/19/2025 20:19:50 -75.48, 61.76 127.93 1.37 47
18 06/19/2025 21:08:21 75.47,-130.58 52.05 06/19/2025 21:09:15 75.50,-130.56 52.09 3.43 54
19 06/19/2025 21:57:39 -75.48, 37.06 127.94 06/19/2025 21:58:43 -75.49, 37.05 127.93 0.82 64
20 06/19/2025 22:46:58 75.52,-155.37 52.09 06/19/2025 22:48:08 75.50,-155.26 52.09 3.28 70
21 06/19/2025 23:36:22 -75.82, 11.39 127.63 06/19/2025 23:37:30 -75.79, 13.21 127.60 49.77 68
22 06/20/2025 00:25:46 76.10, 178.18 52.63 06/20/2025 00:26:49 76.10,-178.19 52.75 96.80 63



Historial Predications of SNOs between AQUA and LANDSAT-8
